EW6430 Weather Reports


time (UTC)temp
C
wind
direction
speed
KPH
gust
KPH
rain 1hr
cm
rain 24hr
cm
rain mn
cm
humidity
%
barometer
mb
20260906004638 14 253 1.6 8.0 0.00 0.18 0.00 79 1020.0
20260906004559 15 238 1.6 11.3 0.00 0.18 0.00 79 1020.3
20260906004056 15 235 1.6 11.3 0.00 0.18 0.00 79 1020.3
20260906003547 15 246 1.6 6.4 0.00 0.18 0.00 79 1020.3
20260906003121 15 261 0.0 6.4 0.00 0.18 0.00 79 1019.9
20260906003038 15 261 1.6 6.4 0.00 0.18 0.00 79 1020.2
20260906002533 15 265 1.6 4.8 0.00 0.18 0.00 79 1020.1
20260906002026 15 277 1.6 16.1 0.00 0.18 0.00 79 1020.2
20260906001551 15 277 1.6 16.1 0.00 0.18 0.00 78 1019.8
20260906001513 15 275 1.6 16.1 0.00 0.18 0.00 78 1020.2
20260906001007 15 264 3.2 12.9 0.00 0.18 0.00 79 1020.2
20260906000452 15 250 3.2 12.9 0.00 0.18 0.00 79 1020.2
20260906000028 15 5 1.6 12.9 0.00 0.18 0.00 79 1019.8
20260905235951 15 5 3.2 12.9 0.00 0.18 0.00 79 1020.1
20260905235445 15 293 3.2 12.9 0.00 0.18 0.00 80 1020.1
20260905234932 15 286 3.2 12.9 0.00 0.18 0.00 81 1020.1
20260905234502 14 286 1.6 12.9 0.00 0.18 0.00 81 1019.7
20260905234427 15 286 3.2 12.9 0.00 0.18 0.00 81 1020.1
20260905233913 15 247 3.2 12.9 0.00 0.18 0.00 82 1020.1
20260905233040 14 239 1.6 8.0 0.00 0.18 0.00 83 1019.7
20260905232857 14 308 3.2 9.7 0.00 0.18 0.00 84 1020.1
20260905232349 14 267 1.6 9.7 0.00 0.18 0.00 84 1020.0
20260905231841 14 236 1.6 4.8 0.00 0.18 0.00 85 1020.0
20260905231510 14 236 0.0 4.8 0.00 0.18 0.00 85 1019.6
20260905231331 14 236 1.6 6.4 0.00 0.18 0.00 85 1020.0
20260905230817 14 224 1.6 6.4 0.00 0.18 0.00 85 1020.0
20260905230308 14 214 1.6 11.3 0.00 0.18 0.00 85 1020.0
20260905230144 14 246 0.0 11.3 0.00 0.18 0.00 85 1019.6
20260905225305 14 290 1.6 8.0 0.00 0.18 0.00 86 1019.9
20260905224751 14 259 3.2 11.3 0.00 0.18 0.00 86 1019.9
20260905224523 14 242 1.6 11.3 0.00 0.18 0.00 86 1019.5
20260905224239 14 252 1.6 11.3 0.00 0.18 0.00 86 1019.9
20260905223729 14 254 3.2 12.9 0.00 0.18 0.00 87 1020.0
20260905223219 14 311 3.2 12.9 0.03 0.18 0.00 87 1019.9
20260905223050 13 311 3.2 12.9 0.03 0.18 0.00 87 1019.5
20260905222156 14 263 1.6 9.7 0.03 0.18 0.00 87 1019.9
20260905221644 14 248 1.6 8.0 0.03 0.18 0.00 87 1020.0
20260905221520 13 248 1.6 8.0 0.03 0.18 0.00 87 1019.6
20260905221144 14 306 1.6 12.9 0.03 0.18 0.00 87 1019.9
20260905220101 13 239 4.8 14.5 0.03 0.18 0.00 86 1019.5
20260905215617 14 248 1.6 14.5 0.03 0.18 0.18 85 1019.9
20260905215112 14 250 1.6 11.3 0.03 0.18 0.18 85 1020.0
20260905214613 14 250 3.2 11.3 0.03 0.18 0.18 84 1020.0
20260905214551 14 250 1.6 11.3 0.03 0.18 0.18 84 1019.6
20260905214108 15 323 3.2 16.1 0.03 0.18 0.18 83 1020.1
20260905213555 15 308 4.8 16.1 0.00 0.15 0.15 82 1020.1
20260905213050 15 287 4.8 16.1 0.00 0.15 0.15 80 1020.1
20260905213027 15 306 4.8 16.1 0.00 0.15 0.15 79 1019.7
20260905212542 15 313 3.2 14.5 0.00 0.15 0.15 78 1020.0
20260905211537 16 344 4.8 14.5 0.00 0.15 0.15 75 1019.9
20260905211511 15 344 4.8 14.5 0.00 0.15 0.15 74 1019.5
20260905211029 16 309 6.4 24.1 0.00 0.15 0.15 73 1019.8
20260905210513 16 265 8.0 19.3 0.00 0.15 0.15 72 1019.8
20260905210151 16 323 11.3 24.1 0.00 0.15 0.15 71 1019.5
20260905210012 16 292 9.7 29.0 0.00 0.15 0.15 70 1019.9
20260905205501 16 314 11.3 37.0 0.00 0.15 0.15 70 1019.9
20260905204952 17 304 12.9 37.0 0.00 0.15 0.15 68 1019.7
20260905204525 17 312 11.3 37.0 0.00 0.15 0.15 65 1019.2
20260905204446 17 256 9.7 35.4 0.00 0.15 0.15 65 1019.6
20260905203930 17 219 3.2 24.1 0.00 0.15 0.15 60 1019.4
20260905203418 16 315 1.6 4.8 0.00 0.15 0.15 63 1018.8
20260905203045 16 293 0.0 9.7 0.00 0.15 0.15 64 1018.2
20260905202352 16 262 1.6 14.5 0.00 0.15 0.15 65 1018.5
20260905201841 16 261 3.2 14.5 0.00 0.15 0.15 65 1018.3
20260905201610 16 240 0.0 6.4 0.00 0.15 0.15 66 1018.0
20260905200811 16 243 3.2 11.3 0.00 0.15 0.15 65 1018.3
20260905200251 16 241 4.8 11.3 0.00 0.15 0.15 65 1018.2
20260905200011 16 241 3.2 11.3 0.00 0.15 0.15 65 1017.9
20260905195732 16 238 4.8 11.3 0.00 0.15 0.15 65 1018.2
20260905194709 16 242 4.8 6.4 0.00 0.15 0.15 64 1018.1
20260905194539 16 246 4.8 6.4 0.00 0.15 0.15 64 1017.7
20260905193643 16 247 4.8 6.4 0.00 0.15 0.15 64 1018.0
20260905193141 16 248 3.2 4.8 0.00 0.15 0.15 64 1017.9
20260905193015 16 248 3.2 4.8 0.00 0.15 0.15 64 1017.5
20260905192633 16 248 1.6 4.8 0.00 0.15 0.15 64 1017.9
20260905192120 16 248 0.0 4.8 0.00 0.15 0.15 63 1017.9
20260905191542 16 248 0.0 4.8 0.00 0.15 0.15 63 1017.5
20260905190030 17 248 1.6 4.8 0.00 0.15 0.15 62 1017.8
20260905190014 17 248 0.0 4.8 0.00 0.15 0.15 62 1017.3
20260905185532 17 248 1.6 6.4 0.00 0.15 0.15 61 1017.8
20260905185016 17 248 1.6 6.4 0.00 0.15 0.15 61 1017.7
20260905184527 17 250 1.6 4.8 0.00 0.15 0.15 62 1017.2
20260905184450 17 250 0.0 4.8 0.00 0.15 0.15 62 1017.7
20260905183426 17 250 1.6 4.8 0.00 0.15 0.15 61 1017.5
20260905183051 17 251 0.0 4.8 0.00 0.15 0.15 61 1017.1
20260905182910 17 251 1.6 4.8 0.00 0.15 0.15 61 1017.5
20260905182357 17 252 1.6 4.8 0.00 0.15 0.15 61 1017.5
20260905181507 17 257 0.0 3.2 0.00 0.15 0.15 60 1017.1
20260905181328 17 257 1.6 6.4 0.00 0.15 0.15 59 1017.5
20260905180311 18 248 1.6 8.0 0.00 0.15 0.15 59 1017.3
20260905180057 17 248 0.0 8.0 0.00 0.15 0.15 59 1016.9
20260905175758 18 246 1.6 8.0 0.00 0.15 0.15 59 1017.3
20260905175241 18 252 0.0 3.2 0.00 0.15 0.15 58 1017.2
20260905174727 18 252 1.6 4.8 0.00 0.15 0.15 58 1017.1
20260905174559 18 252 0.0 4.8 0.00 0.15 0.15 57 1016.6
20260905174213 18 254 0.0 4.8 0.00 0.15 0.15 57 1017.0
20260905173702 18 259 1.6 3.2 0.00 0.15 0.15 56 1017.0
20260905173148 19 259 1.6 6.4 0.00 0.15 0.15 56 1017.0
20260905173019 18 259 0.0 6.4 0.00 0.15 0.15 56 1016.5
20260905172634 19 250 1.6 6.4 0.00 0.15 0.15 56 1016.9
20260905172125 19 257 1.6 6.4 0.00 0.15 0.15 55 1017.0
20260905171552 19 256 1.6 8.0 0.00 0.15 0.15 55 1016.4
20260905171054 19 284 1.6 8.0 0.00 0.15 0.15 55 1016.9
20260905170539 19 277 1.6 4.8 0.00 0.15 0.15 55 1016.8
20260905170105 19 66 1.6 8.0 0.00 0.15 0.15 54 1016.3
20260905170027 19 308 3.2 11.3 0.00 0.15 0.15 54 1016.7
20260905165511 20 252 1.6 11.3 0.00 0.15 0.15 54 1016.7
20260905164525 20 265 1.6 8.0 0.00 0.15 0.15 53 1016.1
20260905164448 20 256 1.6 11.3 0.00 0.15 0.15 53 1016.6
20260905163931 20 252 1.6 11.3 0.00 0.15 0.15 52 1016.5
20260905163411 20 282 3.2 12.9 0.00 0.15 0.15 52 1016.5
20260905163037 20 277 1.6 12.9 0.00 0.15 0.15 52 1016.0
20260905162856 20 303 3.2 12.9 0.00 0.15 0.15 51 1016.5
20260905162343 20 259 3.2 12.9 0.00 0.15 0.15 51 1016.4
20260905161826 20 293 3.2 12.9 0.00 0.15 0.15 50 1016.3
20260905161559 20 271 3.2 12.9 0.00 0.15 0.15 50 1015.7
20260905161314 21 317 1.6 9.7 0.00 0.15 0.15 51 1016.2
20260905160758 21 254 3.2 8.0 0.00 0.15 0.15 51 1016.1
20260905160259 21 338 4.8 14.5 0.00 0.15 0.15 51 1016.0
20260905160021 21 313 3.2 14.5 0.00 0.15 0.15 50 1015.5
20260905155732 21 315 4.8 17.7 0.00 0.15 0.15 51 1016.0
20260905155217 21 304 4.8 17.7 0.00 0.15 0.15 51 1015.9
20260905154654 21 319 4.8 17.7 0.00 0.15 0.15 52 1015.8
20260905154525 21 246 1.6 16.1 0.00 0.15 0.15 52 1015.3
20260905154157 21 257 3.2 16.1 0.00 0.15 0.15 52 1015.8
20260905153629 21 279 3.2 16.1 0.00 0.15 0.15 53 1015.7
20260905153108 21 240 3.2 16.1 0.00 0.15 0.15 51 1015.7
20260905153043 21 244 4.8 16.1 0.00 0.15 0.15 53 1015.1
20260905152042 21 297 3.2 11.3 0.00 0.15 0.15 53 1015.6
20260905151505 21 276 1.6 12.9 0.00 0.15 0.15 54 1015.0
20260905151021 21 292 3.2 12.9 0.00 0.15 0.15 53 1015.6
20260905150509 21 249 4.8 16.1 0.00 0.15 0.15 52 1015.5
20260905150035 22 315 1.6 17.7 0.00 0.15 0.15 51 1015.0
20260905145954 22 315 6.4 19.3 0.00 0.15 0.15 50 1015.5
20260905145454 22 299 4.8 20.9 0.00 0.15 0.15 50 1015.5
20260905145006 22 298 4.8 20.9 0.00 0.15 0.15 53 1015.4
20260905144527 21 320 6.4 20.9 0.00 0.15 0.15 51 1014.7
20260905144438 22 294 4.8 19.3 0.00 0.15 0.15 51 1015.4
20260905143931 22 305 4.8 17.7 0.00 0.15 0.15 49 1015.3
20260905143429 23 327 4.8 14.5 0.00 0.15 0.15 48 1015.3
20260905143202 23 294 4.8 12.9 0.00 0.15 0.15 48 1014.8
20260905142920 23 304 6.4 19.3 0.00 0.15 0.15 48 1015.4
20260905142418 23 335 4.8 19.3 0.00 0.15 0.15 49 1015.3
20260905141918 23 300 3.2 17.7 0.00 0.15 0.15 49 1015.3
20260905141550 23 319 1.6 9.7 0.00 0.15 0.15 51 1014.8
20260905141416 23 325 4.8 17.7 0.00 0.15 0.15 50 1015.3
20260905140914 23 262 4.8 19.3 0.00 0.15 0.15 52 1015.3
20260905140403 22 355 4.8 19.3 0.00 0.15 0.15 51 1015.4
20260905140041 22 315 4.8 16.1 0.00 0.15 0.15 54 1014.8
20260905135858 22 309 4.8 14.5 0.00 0.15 0.15 53 1015.3
20260905135347 22 315 4.8 14.5 0.00 0.15 0.15 54 1015.4
20260905134842 23 302 4.8 17.7 0.00 0.15 0.15 52 1015.4
20260905134515 22 310 3.2 16.1 0.00 0.15 0.15 51 1014.9
20260905134336 23 277 6.4 17.7 0.00 0.15 0.15 51 1015.5
20260905133324 22 252 4.8 22.5 0.00 0.15 0.15 55 1015.5
20260905133004 21 348 6.4 22.5 0.00 0.15 0.15 53 1015.0
20260905132821 21 315 3.2 12.9 0.00 0.15 0.15 53 1015.5
20260905132311 22 202 3.2 12.9 0.00 0.15 0.15 55 1015.7
20260905131539 21 295 3.2 17.7 0.00 0.15 0.15 53 1015.1
20260905131301 22 17 4.8 17.7 0.00 0.15 0.15 53 1015.7
20260905130752 21 308 4.8 19.3 0.00 0.15 0.15 53 1015.6
20260905130240 22 309 6.4 19.3 0.00 0.15 0.15 51 1015.6
20260905130009 21 259 1.6 19.3 0.00 0.15 0.15 52 1014.9
20260905125728 22 309 4.8 19.3 0.00 0.15 0.15 52 1015.6
20260905125220 21 309 3.2 16.1 0.00 0.15 0.15 53 1015.7
20260905124707 21 249 4.8 19.3 0.00 0.15 0.15 52 1015.7
20260905124541 21 252 4.8 19.3 0.00 0.15 0.15 51 1015.1
20260905123131 22 239 6.4 20.9 0.00 0.15 0.15 52 1015.7
20260905123002 21 246 6.4 19.3 0.00 0.15 0.15 53 1015.1
20260905122618 22 285 4.8 17.7 0.00 0.15 0.15 52 1015.8
20260905122118 22 300 4.8 16.1 0.00 0.15 0.15 55 1015.8
20260905121606 22 296 4.8 16.1 0.00 0.15 0.15 51 1015.7
20260905121544 22 296 3.2 16.1 0.00 0.15 0.15 51 1015.1
20260905121054 22 319 6.4 24.1 0.00 0.15 0.15 53 1015.7
20260905120016 22 223 3.2 24.1 0.00 0.15 0.15 55 1015.1
20260905115512 22 350 6.4 24.1 0.00 0.15 0.15 53 1015.7
20260905115005 22 298 4.8 19.3 0.00 0.15 0.15 53 1015.8
20260905114530 22 261 1.6 19.3 0.00 0.15 0.15 57 1015.2
20260905114453 22 259 4.8 19.3 0.00 0.15 0.15 57 1015.8
20260905113427 22 308 4.8 16.1 0.00 0.15 0.15 57 1015.9
20260905113057 22 360 6.4 16.1 0.00 0.15 0.15 56 1015.3
20260905112911 22 320 6.4 19.3 0.00 0.15 0.15 55 1015.8
20260905112356 22 292 6.4 19.3 0.00 0.15 0.15 56 1015.9
20260905111842 22 70 6.4 24.1 0.00 0.15 0.15 59 1015.9
20260905111510 21 317 3.2 24.1 0.00 0.15 0.15 57 1015.3
20260905111330 21 312 8.0 24.1 0.00 0.15 0.15 57 1015.9
20260905110816 21 273 6.4 20.9 0.00 0.15 0.15 59 1016.0
20260905110317 21 331 6.4 20.9 0.00 0.15 0.15 57 1015.9
20260905110032 21 292 8.0 20.9 0.00 0.15 0.15 58 1015.3
20260905105231 21 314 4.8 20.9 0.00 0.15 0.15 61 1015.9
20260905104714 21 325 4.8 20.9 0.00 0.15 0.15 60 1015.9
20260905104546 21 254 3.2 14.5 0.00 0.15 0.15 61 1015.3
20260905104200 20 217 6.4 33.8 0.00 0.15 0.15 61 1015.9
20260905103133 21 257 6.4 27.4 0.00 0.15 0.15 58 1015.9
20260905103016 21 321 9.7 22.5 0.00 0.15 0.15 60 1015.3
20260905102620 21 323 6.4 24.1 0.00 0.15 0.15 61 1015.9
20260905102103 20 340 6.4 24.1 0.00 0.15 0.15 63 1016.0
20260905101524 20 52 6.4 16.1 0.00 0.15 0.15 66 1015.3
20260905101034 20 272 3.2 12.9 0.00 0.15 0.15 71 1016.0
20260905100519 19 309 3.2 12.9 0.00 0.15 0.15 72 1016.0
20260905100042 18 263 3.2 19.3 0.00 0.15 0.15 73 1015.4
20260905100005 19 294 4.8 19.3 0.00 0.15 0.15 74 1015.9
20260905095451 18 254 3.2 19.3 0.00 0.15 0.15 73 1016.0
20260905094939 18 355 3.2 12.9 0.00 0.15 0.15 76 1016.1
20260905094511 18 288 1.6 12.9 0.00 0.15 0.15 76 1015.4
20260905094437 18 276 3.2 12.9 0.00 0.15 0.15 77 1016.0
20260905093407 19 336 4.8 12.9 0.00 0.15 0.15 77 1015.9
20260905093039 18 253 3.2 16.1 0.00 0.15 0.15 76 1015.3
20260905092852 19 242 6.4 22.5 0.00 0.15 0.15 76 1015.8
20260905092341 19 248 8.0 25.7 0.00 0.15 0.15 75 1015.9
20260905091827 19 343 9.7 25.7 0.00 0.15 0.15 76 1015.9
20260905091556 18 241 9.7 25.7 0.00 0.15 0.15 76 1015.3
20260905091310 19 247 11.3 20.9 0.00 0.15 0.15 77 1015.9
20260905090754 18 254 11.3 24.1 0.00 0.15 0.15 78 1016.0
20260905090241 18 235 9.7 24.1 0.00 0.15 0.15 79 1016.1
20260905090008 18 215 9.7 24.1 0.00 0.15 0.15 81 1015.5
20260905085724 18 227 8.0 17.7 0.00 0.15 0.15 82 1016.2
20260905084532 17 236 8.0 20.9 0.00 0.15 0.15 84 1015.5
20260905084143 17 201 8.0 20.9 0.00 0.15 0.15 84 1016.0
20260905083626 17 238 8.0 16.1 0.00 0.15 0.15 87 1015.9
20260905083112 17 240 8.0 16.1 0.00 0.15 0.15 86 1015.9
20260905083046 17 244 9.7 16.1 0.00 0.15 0.15 86 1015.3
20260905082556 17 223 6.4 17.7 0.00 0.15 0.15 87 1015.9
20260905082043 16 226 6.4 17.7 0.00 0.15 0.15 86 1015.8
20260905081528 16 251 4.8 12.9 0.00 0.15 0.15 90 1015.7
20260905081505 16 251 6.4 11.3 0.00 0.15 0.15 90 1015.2
20260905081014 16 224 3.2 8.0 0.00 0.15 0.15 91 1015.7
20260905080458 16 231 3.2 6.4 0.00 0.15 0.15 92 1015.7
20260905080135 15 232 1.6 6.4 0.00 0.15 0.15 92 1015.2
20260905075954 16 233 1.6 6.4 0.00 0.15 0.15 93 1015.8
20260905075438 15 233 1.6 8.0 0.00 0.15 0.15 93 1016.0
20260905074927 15 233 3.2 8.0 0.00 0.15 0.15 93 1015.9
20260905074700 15 233 3.2 8.0 0.00 0.15 0.15 93 1015.3
20260905074417 15 241 3.2 6.4 0.00 0.15 0.15 93 1016.0
20260905073858 15 242 1.6 6.4 0.00 0.15 0.15 94 1016.0
20260905073346 15 242 1.6 8.0 0.00 0.15 0.15 94 1016.0
20260905073018 15 242 1.6 8.0 0.00 0.15 0.15 94 1015.3
20260905072837 15 243 1.6 8.0 0.00 0.15 0.15 94 1015.8
20260905072327 15 242 0.0 4.8 0.00 0.15 0.15 94 1015.7
20260905071645 15 242 0.0 4.8 0.00 0.15 0.15 94 1014.9
20260905071318 15 242 1.6 6.4 0.00 0.15 0.15 94 1015.6
20260905070817 15 242 1.6 6.4 0.00 0.15 0.15 94 1015.6
20260905070305 15 233 1.6 6.4 0.00 0.15 0.15 94 1015.6
20260905070046 15 234 0.0 4.8 0.00 0.15 0.15 95 1014.9
20260905065746 15 234 1.6 6.4 0.00 0.15 0.15 95 1015.7
20260905065245 15 234 3.2 6.4 0.00 0.15 0.15 95 1015.6
20260905064742 15 223 3.2 6.4 0.00 0.15 0.15 95 1015.5
20260905064536 15 233 3.2 6.4 0.00 0.15 0.15 95 1014.7
20260905064241 15 233 1.6 6.4 0.00 0.15 0.15 95 1015.3
20260905063738 15 238 0.0 3.2 0.03 0.15 0.15 95 1015.3
20260905063232 15 238 0.0 3.2 0.05 0.15 0.15 95 1015.0
20260905062721 15 238 0.0 1.6 0.05 0.15 0.15 95 1015.1
20260905062227 15 238 0.0 4.8 0.08 0.15 0.15 95 1015.0
20260905061702 15 238 1.6 4.8 0.10 0.15 0.15 94 1015.0
20260905061538 15 238 0.0 4.8 0.10 0.15 0.15 94 1014.4
20260905061152 15 238 1.6 4.8 0.10 0.15 0.15 94 1014.9
20260905060643 15 238 1.6 4.8 0.13 0.15 0.15 94 1014.8
20260905060010 15 238 0.0 1.6 0.13 0.15 0.15 94 1014.2
20260905055628 15 238 0.0 4.8 0.15 0.15 0.15 93 1015.1
20260905054601 15 238 0.0 4.8 0.15 0.15 0.15 93 1014.3
20260905054115 15 235 1.6 4.8 0.15 0.15 0.15 93 1014.6
20260905053113 15 237 1.6 4.8 0.13 0.13 0.13 92 1014.4
20260905053101 15 237 1.6 4.8 0.13 0.13 0.13 92 1013.7
20260905052628 16 237 1.6 6.4 0.10 0.10 0.10 92 1014.3
20260905052113 16 237 1.6 6.4 0.08 0.08 0.08 91 1014.4
20260905051604 16 325 1.6 6.4 0.05 0.05 0.05 91 1014.5
20260905051544 15 325 0.0 6.4 0.05 0.05 0.05 91 1013.8
20260905051052 16 268 1.6 4.8 0.05 0.05 0.05 91 1014.7
20260905050540 16 271 0.0 4.8 0.05 0.05 0.05 90 1014.5
20260905050027 16 281 1.6 6.4 0.03 0.03 0.03 90 1014.6
20260905050001 16 281 0.0 6.4 0.05 0.05 0.05 90 1013.9
20260905045516 16 281 1.6 6.4 0.03 0.03 0.03 90 1014.4
20260905045003 16 246 1.6 6.4 0.00 0.00 0.00 89 1014.3
20260905044525 16 257 0.0 4.8 0.00 0.00 0.00 89 1013.5
20260905043927 16 257 1.6 3.2 0.00 0.00 0.00 89 1013.9
20260905043041 16 256 1.6 4.8 0.00 0.00 0.00 89 1013.1
20260905042852 16 256 1.6 4.8 0.00 0.00 0.00 89 1013.9
20260905041507 16 244 0.0 0.0 0.00 0.00 0.00 88 1012.9
20260905041328 16 244 0.0 4.8 0.00 0.00 0.00 88 1013.5
20260905040811 16 244 0.0 4.8 0.00 0.00 0.00 87 1013.7
20260905040258 16 244 0.0 6.4 0.00 0.00 0.00 87 1013.5
20260905040029 16 244 0.0 6.4 0.00 0.00 0.00 87 1012.9
20260905035748 17 244 3.2 8.0 0.00 0.00 0.00 86 1013.5
20260905035238 17 246 3.2 8.0 0.00 0.00 0.00 86 1013.6
20260905034604 16 248 3.2 6.4 0.00 0.00 0.00 87 1012.8
20260905034211 17 268 0.0 3.2 0.00 0.00 0.00 86 1013.6
20260905033700 17 268 0.0 3.2 0.00 0.00 0.00 86 1013.1
20260905033021 16 268 0.0 4.8 0.00 0.00 0.00 86 1012.6
20260905032626 17 268 3.2 6.4 0.00 0.00 0.00 86 1013.2
20260905032114 17 242 1.6 4.8 0.00 0.00 0.00 85 1013.2
20260905031600 17 242 0.0 3.2 0.00 0.00 0.00 85 1012.8
20260905031536 17 242 1.6 3.2 0.00 0.00 0.00 85 1012.2
20260905031047 17 242 1.6 4.8 0.00 0.00 0.00 85 1012.8
20260905030529 17 242 1.6 6.4 0.00 0.00 0.00 85 1012.6
20260905030108 17 242 3.2 8.0 0.00 0.00 0.00 85 1011.9
20260905030017 17 231 3.2 11.3 0.00 0.00 0.00 85 1012.4
20260905024950 17 234 3.2 6.4 0.00 0.00 0.00 84 1012.4
20260905024513 17 232 1.6 4.8 0.00 0.00 0.00 84 1012.0
20260905024438 17 232 1.6 4.8 0.00 0.00 0.00 84 1012.6
20260905023939 17 245 1.6 8.0 0.00 0.00 0.00 84 1012.7
20260905023037 17 242 1.6 6.4 0.00 0.00 0.00 84 1012.1
20260905022857 17 243 1.6 12.9 0.00 0.00 0.00 83 1012.7
20260905022341 17 314 1.6 12.9 0.00 0.00 0.00 83 1012.7
20260905021826 17 313 3.2 16.1 0.00 0.00 0.00 83 1012.9
20260905021502 17 311 3.2 16.1 0.00 0.00 0.00 82 1012.2
20260905021327 17 308 3.2 16.1 0.00 0.00 0.00 82 1012.7
20260905020824 18 326 3.2 14.5 0.00 0.00 0.00 81 1012.9
20260905020258 18 252 3.2 14.5 0.00 0.00 0.00 80 1013.0
20260905020129 17 243 1.6 14.5 0.00 0.00 0.00 80 1012.3
20260905015735 18 307 3.2 11.3 0.00 0.00 0.00 79 1012.8
20260905015224 18 311 1.6 9.7 0.00 0.00 0.00 79 1012.8
20260905014710 18 317 1.6 9.7 0.00 0.00 0.00 78 1012.8
20260905014551 18 347 1.6 9.7 0.00 0.00 0.00 78 1012.3
20260905014157 18 325 3.2 16.1 0.00 0.00 0.00 77 1012.8
20260905013646 18 315 3.2 16.1 0.00 0.00 0.00 77 1012.5
20260905013129 18 227 1.6 8.0 0.00 0.00 0.00 76 1012.5
20260905013001 18 307 1.6 4.8 0.00 0.00 0.00 76 1011.9
20260905012615 18 313 1.6 6.4 0.00 0.00 0.00 75 1012.4
20260905011547 18 316 1.6 6.4 0.00 0.00 0.00 75 1012.4
20260905011521 18 316 1.6 6.4 0.00 0.00 0.00 75 1011.8
20260905010045 18 323 1.6 16.1 0.00 0.00 0.00 73 1011.6
20260905010003 18 328 4.8 16.1 0.00 0.00 0.00 73 1012.3